Probability
0 0 0 0 0 0 0 0 0 0 0 0 0 0 0 0 0 0 0 0 0 0 0 0 0 0 0 0 0 0 0 0 0 0 0 0 0 0
0 0 0 0 0 0 0 0 0 0 0 0 0 0 0 0 0 0 0 0 0 0 0 0 0 0 0 0 0 0 0 0 0 0 0 0 0 0
0 0 0 0 0 0 0 0 0 0 0 0 0 0 1 1 1 0 0 0 0 0 0 0 0 0 0 0 0 0 0 0 0 0 0 0 0 0
0 0 0 0 0 0 0 0 0 0 0 0 0 0 1 2 2 1 0 0 0 0 0 0 0 0 0 0 0 0 0 0 0 0 0 0 0 0
0 0 0 0 0 0 0 0 0 0 0 0 0 0 0 1 1 1 0 0 0 0 0 0 0 0 0 0 0 0 0 0 0 0 0 0 0 0
0 0 0 0 0 0 0 0 0 0 0 0 0 0 0 0 0 0 0 0 0 0 0 0 0 0 0 0 0 0 0 0 0 0 0 0 0 0
0 0 0 0 0 0 0 0 0 0 0 0 0 0 0 0 0 0 0 0 0 0 0 0 0 0 0 0 0 0 0 0 0 0 0 0 0 0
0 0 0 0 0 0 0 0 0 0 0 0 0 0 0 0 0 0 0 0 0 0 0 0 0 0 0 0 0 0 0 0 0 0 0 0 0 0
0 0 0 0 0 0 0 0 0 0 0 0 0 0 0 0 0 0 0 0 0 0 0 0 0 0 0 0 0 0 0 0 0 0 0 0 0 0
0 0 0 0 0 0 0 0 0 0 0 0 0 0 0 0 0 0 0 0 0 0 0 0 0 0 0 0 0 0 0 0 0 0 0 0 0 0
0 0 0 0 0 0 0 0 0 0 0 0 0 0 0 0 0 0 0 0 0 0 0 0 0 0 0 0 0 0 0 0 0 0 0 0 0 0
0 0 0 0 0 0 0 0 0 0 0 0 0 0 0 0 0 0 0 0 0 0 0 0 0 0 0 0 0 0 0 0 0 0 0 0 0 0
0 0 0 0 0 0 0 0 0 0 0 0 0 0 0 0 0 0 0 0 0 0 0 0 0 0 0 0 0 0 0 0 0 0 0 0 0 0
0 0 0 0 0 0 0 0 0 0 0 0 0 0 0 0 0 0 0 0 0 0 0 0 0 0 0 0 0 0 0 0 0 0 0 0 0 0
0 0 0 0 0 0 0 0 0 0 0 0 0 0 0 0 0 0 0 0 0 0 0 0 0 0 0 0 0 0 0 0 0 0 0 0 0 0
0 0 0 0 0 0 0 0 0 0 0 0 0 0 0 0 0 0 0 0 0 0 0 0 0 0 0 0 0 0 0 0 0 0 0 0 0 0
0 0 0 0 0 0 0 0 0 0 0 0 0 0 0 0 0 0 0 0 0 0 0 0 0 0 0 0 0 0 0 0 0 0 0 0 0 0
0 0 0 0 0 0 0 0 0 0 0 0 0 0 0 0 0 0 0 0 0 0 0 0 0 0 0 0 0 0 0 0 0 0 0 0 0 0
0 0 0 0 0 0 0 0 0 0 0 0 0 0 0 0 0 0 0 0 0 0 0 0 0 0 0 0 0 0 0 0 0 0 0 0 0 0
0 0 0 0 0 0 0 0 0 0 0 0 0 0 0 0 0 0 0 0 0 0 0 0 0 0 0 0 0 0 0 0 0 0 0 0 0 0
0 0 0 0 0 0 0 0 0 0 0 0 0 0 0 0 0 0 0 0 0 0 0 0 0 0 0 0 0 0 0 0 0 0 0 0 0 0
0 0 0 0 0 0 0 0 0 0 0 0 0 0 0 0 0 0 0 0 0 0 0 0 0 0 0 0 0 0 0 0 0 0 0 0 0 0
0 0 0 0 0 0 0 0 0 0 0 0 0 0 0 0 0 0 0 0 0 0 0 0 0 0 0 0 0 0 0 0 0 0 0 0 0 0
Wind_Speed
4 4 4 3 3 3 3 3 3 4 5 4 3 3 3 3 5 4 5 8 10 10 10 10 10 10 10 10 11 11 12 12 11 11 12 12 13 13
3 4 4 3 3 3 4 4 4 5 6 4 4 3 3 3 6 5 5 8 9 10 11 11 11 11 11 11 11 12 12 12 12 12 12 13 13 13
3 4 4 3 3 3 3 4 4 4 7 6 4 3 3 4 4 4 4 5 5 10 11 12 12 11 11 11 12 12 12 12 12 12 13 13 13 14
5 4 5 4 5 4 3 4 4 4 6 7 5 3 4 4 4 4 4 4 5 9 11 12 12 12 11 11 12 12 11 11 12 12 12 13 14 14
4 5 4 4 5 3 4 4 4 4 5 6 6 3 3 2 3 4 4 4 4 6 9 11 11 12 12 12 12 11 11 11 11 11 12 12 13 14
4 4 4 4 5 4 4 4 4 4 4 5 5 4 3 3 2 3 4 3 4 4 6 7 9 11 12 12 12 11 11 11 11 11 12 12 13 13
4 4 4 4 5 4 4 4 4 4 4 4 5 4 3 3 4 3 4 3 3 2 3 4 4 4 6 9 10 10 11 11 11 12 12 12 12 13
4 4 4 4 5 6 7 6 5 5 5 5 5 6 6 4 3 3 3 2 3 2 2 4 2 4 4 4 9 11 11 11 11 11 11 12 12 12
4 3 3 3 3 3 5 6 6 7 7 5 6 6 5 4 4 4 4 4 5 2 2 4 2 4 4 5 9 9 10 10 10 10 11 11 11 11
3 3 4 4 3 3 3 4 5 5 6 5 5 5 4 3 4 4 4 4 3 2 1 3 2 3 4 4 7 7 8 8 9 10 10 11 11 11
3 3 4 4 6 6 4 4 5 5 6 6 7 6 6 5 3 2 2 2 3 3 2 2 2 3 3 3 4 6 7 8 9 10 10 11 11 10
3 3 4 5 6 6 4 4 6 5 3 3 4 5 4 4 4 3 3 3 2 3 2 2 1 1 3 2 2 2 3 7 9 9 10 11 11 6
3 3 3 7 8 8 7 5 6 5 3 3 3 3 2 2 2 2 2 3 4 4 2 2 1 1 2 3 2 2 2 3 3 5 8 10 10 7
3 3 3 7 8 8 6 6 7 4 2 2 2 2 3 3 2 2 3 3 3 4 3 3 3 2 2 3 3 2 2 3 3 4 4 8 9 10
3 5 6 7 7 5 6 6 4 2 2 2 3 3 3 3 2 2 2 2 2 2 2 3 3 3 3 4 3 3 3 3 3 3 4 4 4 4
3 4 5 5 5 4 3 3 2 2 2 3 3 2 2 2 2 2 2 2 2 3 2 3 3 4 4 5 5 5 3 3 3 3 4 4 4 4
2 1 1 2 2 2 2 2 2 2 2 3 2 2 2 2 2 2 2 2 2 3 3 2 2 3 4 4 4 5 5 4 4 4 3 5 5 5
1 1 2 2 3 3 3 3 2 2 2 3 3 3 3 3 3 2 2 3 4 4 4 3 2 1 2 3 7 6 4 4 4 4 3 4 6 5
1 2 3 3 3 3 3 3 4 3 3 3 3 3 3 3 3 3 3 3 4 4 4 3 2 2 3 5 4 6 4 4 3 3 4 4 6 6
2 3 4 4 4 4 4 4 4 3 3 3 4 3 3 3 3 4 4 4 4 4 4 3 3 4 5 5 4 4 6 4 4 4 4 4 5 8
4 4 4 4 4 4 4 4 4 4 4 3 4 4 3 3 4 4 4 5 5 4 5 5 4 4 3 2 4 4 4 6 6 4 4 4 5 4
4 4 4 4 4 4 4 4 4 4 4 4 4 4 4 4 4 5 4 4 5 5 6 4 2 2 2 4 6 6 5 5 6 9 9 7 4 4
5 5 4 4 4 4 4 4 5 4 4 4 4 4 4 4 4 4 5 5 5 5 4 3 2 2 3 4 5 5 6 6 4 4 5 9 12 14
Wind_Direction
220 219 226 232 225 226 219 208 217 256 266 250 249 245 233 235 248 246 248 259 263 264 265 265 263 263 265 267 271 275 278 279 279 280 282 285 286 286
223 223 232 237 235 228 225 227 224 231 255 251 242 250 244 250 252 243 246 262 264 264 264 263 262 261 262 264 267 272 275 275 276 279 281 282 284 284
230 228 239 238 239 240 235 231 230 226 247 263 252 252 242 250 261 246 248 247 258 262 263 263 260 259 258 262 267 270 272 274 275 277 280 283 285 286
234 232 242 240 239 239 237 238 237 234 239 260 266 253 248 253 257 256 261 258 257 265 264 263 263 261 260 261 265 268 271 273 275 276 279 281 283 286
235 234 240 238 245 247 246 245 246 251 247 251 261 255 260 263 267 267 266 263 265 268 266 264 267 267 264 263 265 266 267 270 272 274 277 278 281 282
240 238 239 234 242 245 246 247 249 251 251 251 256 256 255 256 248 260 273 260 268 274 270 270 271 270 268 268 267 266 266 268 270 271 273 275 276 277
246 244 242 242 247 246 248 248 243 246 246 250 256 255 249 252 249 244 260 278 275 261 278 275 270 263 262 266 265 264 266 269 270 271 271 272 274 275
246 251 253 248 256 257 259 259 251 247 246 244 253 254 252 246 247 247 258 277 278 262 269 275 256 262 261 251 264 268 269 272 272 273 274 274 274 276
247 255 263 268 257 257 266 269 266 264 254 247 249 255 258 244 230 240 240 244 252 258 259 273 267 267 271 269 273 272 276 277 279 280 282 281 279 279
251 249 253 263 259 259 260 267 269 268 265 258 255 264 265 261 235 232 236 252 268 262 219 260 269 271 283 278 280 281 285 288 291 291 288 288 287 286
262 258 256 257 270 270 261 264 274 277 277 269 269 270 272 268 250 219 224 232 266 261 205 242 268 284 285 274 282 288 290 294 298 299 297 296 296 292
274 267 264 268 277 270 255 251 263 276 286 295 284 283 282 276 258 227 223 231 249 259 211 217 253 307 298 284 296 302 295 296 299 300 302 303 302 298
275 276 274 277 278 274 267 256 260 274 270 267 275 281 289 286 277 253 231 227 233 241 216 194 230 230 244 287 295 283 284 295 299 295 297 300 300 299
266 274 279 283 283 281 274 270 274 273 263 263 267 270 273 276 278 268 252 244 240 246 232 201 217 217 238 271 277 290 291 283 281 285 291 300 301 299
277 282 288 287 289 286 281 280 279 260 255 258 258 263 266 269 277 284 281 269 275 273 250 227 231 232 227 245 259 267 286 283 273 276 288 291 291 297
280 284 286 291 295 301 302 295 286 271 257 256 264 273 281 277 271 272 276 283 286 285 268 244 235 230 240 247 251 262 253 262 276 277 283 285 286 277
297 302 302 308 301 303 303 294 287 280 273 273 267 269 270 268 268 261 254 255 253 268 278 270 251 243 244 247 256 257 256 255 258 269 276 284 280 271
331 267 274 277 275 275 278 284 283 277 278 279 270 263 262 260 266 264 254 245 252 260 264 264 269 300 295 263 235 251 255 255 262 263 253 269 281 277
237 257 264 265 265 267 269 268 270 273 274 268 265 261 263 264 259 256 252 251 254 257 259 253 241 233 260 276 272 228 234 257 268 266 254 249 269 281
247 250 258 263 266 264 264 269 273 273 269 271 268 261 254 255 259 258 252 249 254 259 263 249 233 229 237 258 271 271 251 247 254 269 274 271 270 281
247 250 253 257 262 262 262 262 264 265 263 261 264 260 253 246 252 256 256 254 252 251 255 258 251 248 253 269 275 277 271 260 257 257 268 281 287 290
245 247 250 249 252 253 253 254 258 260 258 256 256 254 251 248 251 253 252 251 252 251 256 266 265 237 220 234 258 274 287 292 286 284 277 262 253 264
244 246 248 246 244 244 244 245 248 254 253 255 258 255 247 247 249 250 252 251 254 256 257 263 260 242 239 242 256 270 279 286 291 297 289 282 274 273